Location: Auckland
(36.8670°S, 174.7670°E)
Time: 03:59:40
(UTC+12:00)

Tiros 1 despin weight - Pass Details

Date: 21 July 2019
Orbit: 594 x 642 km, 48.2° (Epoch: 20 August)

Event Time Altitude Azimuth Distance (km) Brightness Sun altitude
Rises 03:40:20 0° 241° (WSW) 2,862 - -45.2°
Reaches altitude 10° 03:43:11 10° 223° (SW) 1,965 - -44.7°
Maximum altitude 03:46:28 19° 176° (S) 1,454 - -44.0°
Drops below altitude 10° 03:49:47 10° 129° (SE) 1,982 - -43.4°
Exits shadow 03:51:13 - 118° (ESE) 2,411 ? -43.1°
Sets 03:52:40 0° 111° (ESE) 2,896 ? -42.8°
